Weather Roundup
Issued by NWS Springfield, MO

Home | Current Version | Previous Version | Text Only | Print | Product List | Glossary On
Versions: 1 2 3 4 5 6 7 8 9 10 11 12 13 14 15 16 17 18 19 20 21 22 23 24 25 26 27 28 29 30 31 32 33 34 35 36 37 38 39 40 41 42 43 44 45 46 47 48 49 50
372
NZUS99 KSGF 250857
HRRSGF

HOURLY WEATHER
NATIONAL WEATHER SERVICE SPRINGFIELD MO
400 AM CDT FRI MAY 25 2018

......SGF CWA......

CITY           SKY/WX    TMP DP  RH WIND       PRES   REMARKS
SPRINGFIELD    CLOUDY    68  64  87 S9        29.98F
JOPLIN         CLOUDY    72  65  78 S9        29.95F
WEST PLAINS    CLOUDY    67  65  93 CALM      30.03S
ROLLA          CLOUDY    67  64  90 S6        30.00F

......SURROUNDING SGF CWA......

CITY           SKY/WX    TMP DP  RH WIND       PRES   REMARKS
CHANUTE        PTCLDY    69  67  93 S8        29.93F
PARSONS        PTCLDY    70  67  90 S7        29.94F
COFFEYVILLE    CLEAR     69  66  90 S8        29.92F
EMPORIA        CLOUDY    69  65  86 W9G21     29.96R
HARRISON AR    PTCLDY    65  65 100 SE3       30.01F FOG

......KANSAS AND MISSOURI......

CITY           SKY/WX    TMP DP  RH WIND       PRES   REMARKS
KANSAS CTY INT CLOUDY    68  65  90 SE14      29.93F
SEDALIA        CLOUDY    69  66  90 SE6       29.96F
ST JOSEPH      CLOUDY    70  65  84 S8        29.92F
ST LOUIS       CLOUDY    75  63  66 S6        29.99F
WICHITA        CLOUDY    66  61  82 N16       29.99S THUNDER
TOPEKA         CLOUDY    67  67 100 E6        29.91F
OLATHE         CLOUDY    67  66  97 E3        29.94F

......TENNESSEE......

CITY           SKY/WX    TMP DP  RH WIND       PRES   REMARKS
MEMPHIS        NOT AVBL
NASHVILLE      FAIR      69  65  86 CALM      30.02S

......ARKANSAS.......

CITY           SKY/WX    TMP DP  RH WIND       PRES   REMARKS
FAYETTEVILLE   CLEAR     63  62  97 CALM      30.00F
FT SMITH       CLEAR     69  68  96 E3        29.98F
LITTLE ROCK    PTCLDY    70  69  97 S6        29.99R

......OKLAHOMA.......

CITY           SKY/WX    TMP DP  RH WIND       PRES   REMARKS
TULSA          PTCLDY    73  66  78 S9        29.93F
PONCA CITY     MOCLDY    74  66  76 W12       29.97R
MCALESTER      CLOUDY    70  67  90 SE3       29.98F
OKLAHOMA CITY  PTCLDY    68  65  90 S7        29.95F

......IOWA............

CITY           SKY/WX    TMP DP  RH WIND       PRES   REMARKS
DES MOINES     NOT AVBL
QUAD CITIES    FAIR      71  60  68 S8        29.95F

......ILLINOIS........

CITY           SKY/WX    TMP DP  RH WIND       PRES   REMARKS
QUINCY         NOT AVBL
CHICAGO        FAIR      68  51  54 S6        29.97F





USA.gov is the U.S. government's official web portal to all federal, state and local government web resources and services.